• en France
  • Liste des pays
  • À 7 jours
  • Température de l'eau
  • Carte satellitaire
  • Carte météo
  • Widgets météo
  • user-avatar
    Se connecter

    Météo par heure à Madingou

    Ce jour, 19 Février, Lundi

    Heure Température Précipitation Vent Pression Humidité
    00:00 +26°C° 0,7 mm 1 m/s 743 mmHg 93%
    01:00 +26°C° 0 mm 1 m/s 743 mmHg 94%
    02:00 +26°C° 0,7 mm 1 m/s 743 mmHg 94%
    03:00 +26°C° 0,7 mm 1 m/s 743 mmHg 95%
    04:00 +26°C° 0,7 mm 1 m/s 743 mmHg 95%
    05:00 +26°C° 0,9 mm 1 m/s 743 mmHg 94%
    06:00 +24°C° 0,9 mm 0 m/s 744 mmHg 93%
    07:00 +24°C° 0,9 mm 0 m/s 744 mmHg 92%
    08:00 +25°C° 1,1 mm 0 m/s 744 mmHg 89%
    09:00 +26°C° 1,1 mm 0 m/s 744 mmHg 86%
    10:00 +29°C° 1,1 mm 1 m/s 745 mmHg 83%
    11:00 +30°C° 1,2 mm 1 m/s 744 mmHg 81%
    12:00 +30°C° 1,2 mm 1 m/s 744 mmHg 79%
    13:00 +30°C° 1,2 mm 1 m/s 743 mmHg 77%
    14:00 +30°C° 0,8 mm 1 m/s 743 mmHg 80%
    15:00 +29°C° 0,8 mm 1 m/s 743 mmHg 83%
    16:00 +29°C° 0,8 mm 1 m/s 742 mmHg 86%
    17:00 +28°C° 0,5 mm 1 m/s 743 mmHg 88%
    18:00 +27°C° 0,5 mm 1 m/s 743 mmHg 91%
    19:00 +26°C° 0,5 mm 1 m/s 743 mmHg 93%
    20:00 +26°C° 0,2 mm 1 m/s 744 mmHg 94%
    21:00 +26°C° 0,2 mm 1 m/s 744 mmHg 95%
    22:00 +26°C° 0,2 mm 1 m/s 745 mmHg 95%
    23:00 +25°C° 0,2 mm 1 m/s 745 mmHg 95%

    Demain, 20 Février, Mardi

    Heure Température Précipitation Vent Pression Humidité
    00:00 +25°C° 0,2 mm 1 m/s 744 mmHg 96%
    01:00 +25°C° 0,2 mm 1 m/s 744 mmHg 96%
    02:00 +25°C° 0,2 mm 1 m/s 744 mmHg 96%
    03:00 +23°C° 0,2 mm 0 m/s 744 mmHg 96%
    04:00 +23°C° 0,2 mm 0 m/s 743 mmHg 96%
    05:00 +23°C° 0,1 mm 0 m/s 744 mmHg 96%
    06:00 +23°C° 0,1 mm 0 m/s 744 mmHg 96%
    07:00 +23°C° 0,1 mm 0 m/s 744 mmHg 96%
    08:00 +24°C° 0,2 mm 0 m/s 745 mmHg 93%
    09:00 +24°C° 0,2 mm 0 m/s 745 mmHg 91%
    10:00 +25°C° 0,2 mm 0 m/s 745 mmHg 88%
    11:00 +28°C° 0,2 mm 1 m/s 745 mmHg 84%
    12:00 +29°C° 0,2 mm 1 m/s 744 mmHg 79%
    13:00 +30°C° 0,2 mm 1 m/s 743 mmHg 75%
    14:00 +30°C° 0,1 mm 1 m/s 743 mmHg 73%
    15:00 +31°C° 0,1 mm 2 m/s 742 mmHg 70%
    16:00 +31°C° 0,1 mm 2 m/s 741 mmHg 68%
    17:00 +30°C° 0,4 mm 2 m/s 742 mmHg 74%
    18:00 +28°C° 0,4 mm 1 m/s 742 mmHg 81%
    19:00 +27°C° 0,4 mm 1 m/s 742 mmHg 87%
    20:00 +27°C° 1,2 mm 1 m/s 743 mmHg 89%
    21:00 +26°C° 1,2 mm 1 m/s 744 mmHg 92%
    22:00 +26°C° 1,2 mm 1 m/s 744 mmHg 94%
    23:00 +26°C° 0,1 mm 1 m/s 744 mmHg 95%

    Après-demain, 21 Février, Mercredi

    Heure Température Précipitation Vent Pression Humidité
    00:00 +25°C° 0,1 mm 1 m/s 744 mmHg 96%
    01:00 +25°C° 0,1 mm 1 m/s 743 mmHg 96%
    02:00 +25°C° 0 mm 1 m/s 743 mmHg 97%
    03:00 +25°C° 0 mm 1 m/s 743 mmHg 97%
    04:00 +24°C° 0 mm 1 m/s 743 mmHg 98%
    05:00 +23°C° 0 mm 0 m/s 743 mmHg 97%
    06:00 +23°C° 0 mm 0 m/s 744 mmHg 96%
    07:00 +23°C° 0 mm 0 m/s 744 mmHg 96%
    08:00 +24°C° 0 mm 0 m/s 745 mmHg 89%
    09:00 +28°C° 0 mm 1 m/s 745 mmHg 83%
    10:00 +29°C° 0 mm 1 m/s 745 mmHg 76%
    11:00 +30°C° 0 mm 1 m/s 744 mmHg 71%
    12:00 +32°C° 0 mm 1 m/s 743 mmHg 66%
    13:00 +33°C° 0 mm 1 m/s 743 mmHg 60%
    14:00 +33°C° 0 mm 1 m/s 742 mmHg 60%
    15:00 +33°C° 0 mm 1 m/s 741 mmHg 60%
    16:00 +33°C° 0 mm 1 m/s 740 mmHg 60%
    17:00 +31°C° 0 mm 1 m/s 741 mmHg 66%
    18:00 +30°C° 0 mm 1 m/s 741 mmHg 73%
    19:00 +28°C° 0 mm 2 m/s 742 mmHg 79%
    20:00 +28°C° 0 mm 1 m/s 742 mmHg 83%
    21:00 +27°C° 0 mm 1 m/s 743 mmHg 86%
    22:00 +26°C° 0 mm 1 m/s 744 mmHg 89%
    23:00 +26°C° 0 mm 1 m/s 743 mmHg 91%

    22 Février, Jeudi

    Heure Température Précipitation Vent Pression Humidité
    00:00 +26°C° 0 mm 1 m/s 743 mmHg 94%
    01:00 +25°C° 0 mm 1 m/s 742 mmHg 96%
    02:00 +25°C° 0 mm 1 m/s 742 mmHg 96%
    03:00 +25°C° 0 mm 1 m/s 742 mmHg 97%
    04:00 +25°C° 0 mm 1 m/s 742 mmHg 97%
    05:00 +23°C° 0 mm 0 m/s 742 mmHg 96%
    06:00 +23°C° 0 mm 0 m/s 743 mmHg 95%
    07:00 +23°C° 0 mm 0 m/s 743 mmHg 94%
    08:00 +27°C° 0 mm 1 m/s 743 mmHg 85%
    09:00 +29°C° 0 mm 1 m/s 744 mmHg 77%
    10:00 +31°C° 0 mm 1 m/s 744 mmHg 69%
    11:00 +32°C° 0 mm 1 m/s 743 mmHg 64%
    12:00 +33°C° 0 mm 1 m/s 742 mmHg 59%
    13:00 +34°C° 0 mm 1 m/s 741 mmHg 54%
    14:00 +34°C° 0 mm 1 m/s 741 mmHg 54%
    15:00 +34°C° 0 mm 1 m/s 740 mmHg 54%
    16:00 +32°C° 0 mm 0 m/s 740 mmHg 54%
    17:00 +31°C° 0 mm 0 m/s 740 mmHg 59%
    18:00 +29°C° 0 mm 0 m/s 741 mmHg 65%
    19:00 +27°C° 0 mm 0 m/s 741 mmHg 70%
    20:00 +27°C° 0,1 mm 0 m/s 741 mmHg 73%
    21:00 +26°C° 0,1 mm 0 m/s 742 mmHg 75%
    22:00 +28°C° 0,1 mm 1 m/s 742 mmHg 77%
    23:00 +25°C° 0 mm 0 m/s 742 mmHg 79%

    23 Février, Vendredi

    Heure Température Précipitation Vent Pression Humidité
    00:00 +25°C° 0 mm 0 m/s 741 mmHg 80%
    01:00 +25°C° 0 mm 0 m/s 741 mmHg 81%
    02:00 +24°C° 0 mm 0 m/s 740 mmHg 82%
    03:00 +24°C° 0 mm 0 m/s 740 mmHg 83%
    04:00 +24°C° 0 mm 0 m/s 740 mmHg 84%
    05:00 +24°C° 0 mm 0 m/s 741 mmHg 84%
    06:00 +25°C° 0 mm 0 m/s 741 mmHg 84%
    07:00 +25°C° 0 mm 0 m/s 742 mmHg 85%
    08:00 +27°C° 0 mm 0 m/s 742 mmHg 77%
    09:00 +29°C° 0 mm 0 m/s 742 mmHg 69%
    10:00 +31°C° 0 mm 0 m/s 742 mmHg 61%
    11:00 +33°C° 0 mm 0 m/s 742 mmHg 56%
    12:00 +34°C° 0 mm 0 m/s 741 mmHg 52%
    13:00 +36°C° 0 mm 0 m/s 740 mmHg 48%
    14:00 +37°C° 0 mm 1 m/s 740 mmHg 50%
    15:00 +36°C° 0 mm 1 m/s 740 mmHg 53%
    16:00 +35°C° 0 mm 1 m/s 739 mmHg 56%
    17:00 +33°C° 0,3 mm 1 m/s 740 mmHg 61%
    18:00 +32°C° 0,3 mm 1 m/s 740 mmHg 67%
    19:00 +30°C° 0,3 mm 1 m/s 741 mmHg 72%
    20:00 +29°C° 2,1 mm 1 m/s 741 mmHg 79%
    21:00 +28°C° 2,1 mm 2 m/s 742 mmHg 86%
    22:00 +27°C° 2,1 mm 2 m/s 742 mmHg 93%
    23:00 +26°C° 0,1 mm 2 m/s 742 mmHg 94%

    24 Février, Samedi

    Heure Température Précipitation Vent Pression Humidité
    00:00 +26°C° 0,1 mm 1 m/s 742 mmHg 94%
    01:00 +26°C° 0,1 mm 1 m/s 742 mmHg 95%
    02:00 +26°C° 0,4 mm 1 m/s 742 mmHg 95%
    03:00 +26°C° 0,4 mm 1 m/s 742 mmHg 96%
    04:00 +26°C° 0,4 mm 1 m/s 742 mmHg 96%
    05:00 +26°C° 0 mm 1 m/s 742 mmHg 95%
    06:00 +26°C° 0 mm 1 m/s 743 mmHg 95%
    07:00 +26°C° 0 mm 1 m/s 743 mmHg 94%
    08:00 +28°C° 0,1 mm 1 m/s 744 mmHg 87%
    09:00 +30°C° 0,1 mm 1 m/s 744 mmHg 79%
    10:00 +32°C° 0,1 mm 1 m/s 744 mmHg 72%
    11:00 +32°C° 0,4 mm 1 m/s 743 mmHg 69%
    12:00 +33°C° 0,4 mm 1 m/s 743 mmHg 66%
    13:00 +34°C° 0,4 mm 1 m/s 742 mmHg 63%
    14:00 +33°C° 0,3 mm 1 m/s 742 mmHg 64%
    15:00 +34°C° 0,3 mm 2 m/s 741 mmHg 65%
    16:00 +34°C° 0,3 mm 2 m/s 741 mmHg 66%
    17:00 +31°C° 1,1 mm 2 m/s 741 mmHg 74%
    18:00 +30°C° 1,1 mm 2 m/s 742 mmHg 81%
    19:00 +28°C° 1,1 mm 2 m/s 742 mmHg 89%
    20:00 +27°C° 4,2 mm 2 m/s 743 mmHg 90%
    21:00 +27°C° 4,2 mm 2 m/s 744 mmHg 92%
    22:00 +27°C° 4,2 mm 2 m/s 744 mmHg 94%
    23:00 +26°C° 0,7 mm 2 m/s 744 mmHg 94%
    Voir plus